FW6835 Weather Reports


Display with metric or nautical units.
time (UTC)temp
F
wind
direction
speed
MPH
gust
MPH
rain 1hr
in
rain 24hr
in
rain mn
in
humidity
%
barometer
mb
20260505032554 57 348 0.0 1.0 0.00 0.00 0.00 76 1009.2
20260505032052 57 348 0.0 0.0 0.00 0.00 0.00 76 1009.2
20260505031553 57 348 0.0 0.0 0.00 0.00 0.00 75 1009.1
20260505031055 57 348 0.0 0.0 0.00 0.00 0.00 75 1009.2
20260505030555 57 348 0.0 0.0 0.00 0.00 0.00 75 1009.2
20260505030053 57 348 0.0 0.0 0.00 0.00 0.00 75 1009.2
20260505025552 57 348 0.0 1.0 0.00 0.00 0.00 76 1009.4
20260505025051 56 348 0.0 3.0 0.00 0.00 0.00 76 1009.4
20260505024552 56 338 0.0 1.0 0.00 0.00 0.00 76 1009.5
20260505024050 56 49 0.0 2.0 0.00 0.00 0.00 77 1009.5
20260505023550 56 50 0.0 2.0 0.00 0.00 0.00 77 1009.6
20260505023100 56 12 0.0 2.0 0.00 0.00 0.00 77 1009.6
20260505022552 56 12 0.0 3.0 0.00 0.00 0.00 77 1009.8
20260505022052 56 13 1.0 3.0 0.00 0.00 0.00 77 1009.9
20260505021548 56 49 0.0 3.0 0.00 0.00 0.00 76 1009.9
20260505021046 56 57 0.0 3.0 0.00 0.00 0.00 76 1009.9
20260505020545 57 60 0.0 2.0 0.00 0.00 0.00 74 1010.0
20260505020049 57 59 0.0 1.0 0.00 0.00 0.00 75 1010.0
20260505015543 57 59 0.0 0.0 0.00 0.00 0.00 74 1010.1
20260505015045 58 59 0.0 0.0 0.00 0.00 0.00 74 1010.1
20260505014541 58 59 0.0 0.0 0.00 0.00 0.00 73 1010.3
20260505014044 58 59 0.0 0.0 0.00 0.00 0.00 73 1010.3
20260505013541 58 59 0.0 0.0 0.00 0.00 0.00 73 1010.3
20260505013040 58 59 0.0 0.0 0.00 0.00 0.00 72 1010.3
20260505012540 58 59 0.0 2.0 0.00 0.00 0.00 72 1010.4
20260505012039 58 63 0.0 2.0 0.00 0.00 0.00 73 1010.4
20260505011539 58 64 0.0 2.0 0.00 0.00 0.00 73 1010.4
20260505011037 59 65 0.0 2.0 0.00 0.00 0.00 72 1010.5
20260505010537 59 65 0.0 0.0 0.00 0.00 0.00 71 1010.7
20260505010041 59 65 0.0 0.0 0.00 0.00 0.00 70 1010.6
20260505005536 60 65 0.0 0.0 0.00 0.00 0.00 69 1010.7
20260505005036 60 65 0.0 0.0 0.00 0.00 0.00 68 1010.8
20260505004545 60 65 0.0 0.0 0.00 0.00 0.00 69 1010.8
20260505004037 60 65 0.0 0.0 0.00 0.00 0.00 67 1010.8
20260505003535 60 65 0.0 0.0 0.00 0.00 0.00 68 1010.7
20260505003038 60 65 0.0 2.0 0.00 0.00 0.00 68 1010.8
20260505002535 60 71 0.0 4.0 0.00 0.00 0.00 67 1010.6
20260505002034 60 95 2.0 4.0 0.00 0.00 0.00 67 1010.8
20260505001534 60 36 0.0 3.0 0.00 0.00 0.00 69 1010.7
20260505001034 60 80 0.0 4.0 0.00 0.00 0.00 69 1010.8
20260505000534 60 84 1.0 5.0 0.00 0.00 0.00 70 1011.0
20260505000035 60 37 2.0 5.0 0.00 0.00 0.00 70 1011.0
20260504235533 60 42 1.0 4.0 0.00 0.00 0.00 70 1010.8
20260504235134 60 65 1.0 4.0 0.00 0.00 0.00 70 1011.0
20260504234543 60 55 1.0 6.0 0.00 0.00 0.00 70 1011.1
20260504234032 60 52 1.0 6.0 0.00 0.00 0.00 70 1011.1
20260504233530 60 69 1.0 5.0 0.00 0.00 0.00 70 1011.0
20260504233034 60 68 1.0 5.0 0.00 0.00 0.00 70 1011.2
20260504232530 60 65 2.0 5.0 0.00 0.00 0.00 70 1011.2
20260504232029 60 57 2.0 6.0 0.00 0.00 0.00 70 1011.3
20260504231539 60 37 1.0 4.0 0.00 0.00 0.00 70 1011.4
20260504231030 60 78 1.0 5.0 0.00 0.00 0.00 70 1011.4
20260504230528 60 350 0.0 5.0 0.00 0.00 0.00 71 1011.4
20260504230028 60 49 1.0 5.0 0.00 0.00 0.00 70 1011.4
20260504225528 60 333 1.0 4.0 0.00 0.00 0.00 71 1011.3
20260504225029 60 65 0.0 5.0 0.00 0.00 0.00 71 1011.5
20260504224527 60 68 1.0 6.0 0.00 0.00 0.00 71 1011.6
20260504224022 59 71 1.0 6.0 0.00 0.00 0.00 72 1011.7
20260504223521 59 74 2.0 5.0 0.00 0.00 0.00 72 1011.7
20260504223022 59 78 1.0 5.0 0.00 0.00 0.00 72 1011.7
20260504222523 59 74 1.0 6.0 0.00 0.00 0.00 73 1011.5
20260504222021 59 78 1.0 6.0 0.00 0.00 0.00 73 1011.7
20260504221520 59 61 2.0 5.0 0.00 0.00 0.00 72 1011.7
20260504221022 59 153 1.0 6.0 0.00 0.00 0.00 73 1012.0
20260504220518 59 74 1.0 6.0 0.00 0.00 0.00 73 1012.1
20260504220017 59 69 1.0 6.0 0.00 0.00 0.00 74 1012.2
20260504215516 58 109 1.0 4.0 0.00 0.00 0.00 75 1012.2
20260504215020 58 61 1.0 4.0 0.00 0.00 0.00 75 1012.3
20260504214518 58 63 2.0 3.0 0.00 0.00 0.00 76 1012.2
20260504214016 58 67 2.0 3.0 0.00 0.00 0.00 76 1012.3
20260504213521 58 79 1.0 3.0 0.00 0.00 0.00 76 1012.4
20260504213016 58 80 1.0 3.0 0.00 0.00 0.00 76 1012.6
20260504212516 58 69 1.0 3.0 0.00 0.00 0.00 76 1012.6
20260504212015 58 51 0.0 3.0 0.00 0.00 0.00 76 1012.5
20260504211516 58 64 0.0 3.0 0.00 0.00 0.00 76 1012.5
20260504211015 58 65 0.0 3.0 0.00 0.00 0.00 76 1012.6
20260504210518 58 65 1.0 3.0 0.00 0.00 0.00 76 1012.5
20260504210015 57 68 1.0 3.0 0.00 0.00 0.00 76 1012.7
20260504205517 57 68 0.0 2.0 0.00 0.00 0.00 77 1012.6
20260504205015 57 69 0.0 2.0 0.00 0.00 0.00 76 1012.6
20260504204530 58 69 0.0 1.0 0.00 0.00 0.00 77 1012.7
20260504204015 58 69 0.0 2.0 0.00 0.00 0.00 76 1012.6
20260504203515 58 69 0.0 2.0 0.00 0.00 0.00 76 1012.6
20260504203014 58 71 0.0 2.0 0.00 0.00 0.00 75 1012.6
20260504202514 58 71 0.0 2.0 0.00 0.00 0.00 75 1012.7
20260504202014 58 71 0.0 2.0 0.00 0.00 0.00 75 1012.5
20260504201513 59 71 0.0 2.0 0.00 0.00 0.00 75 1012.6
20260504201013 59 71 0.0 0.0 0.00 0.00 0.00 75 1012.5
20260504200516 59 71 0.0 3.0 0.00 0.00 0.00 75 1012.6
20260504200015 59 71 0.0 3.0 0.00 0.00 0.00 76 1012.5
20260504195512 59 69 0.0 2.0 0.00 0.00 0.00 76 1012.4
20260504195012 59 69 0.0 2.0 0.00 0.00 0.00 76 1012.4
20260504194512 59 70 0.0 1.0 0.00 0.00 0.00 76 1012.5
20260504194012 59 70 0.0 2.0 0.00 0.00 0.00 76 1012.4
20260504193513 59 69 0.0 2.0 0.00 0.00 0.00 76 1012.5
20260504193020 59 48 0.0 2.0 0.00 0.00 0.00 76 1012.5
20260504192511 59 257 0.0 1.0 0.00 0.00 0.00 77 1012.5
20260504192013 59 257 0.0 1.0 0.00 0.00 0.00 77 1012.5
20260504191511 59 241 0.0 0.0 0.00 0.00 0.00 77 1012.6
20260504191011 59 241 0.0 0.0 0.00 0.00 0.00 76 1012.5
20260504190510 59 241 0.0 1.0 0.00 0.00 0.00 76 1012.5
20260504190010 59 241 0.0 2.0 0.00 0.00 0.00 76 1012.4
20260504185511 60 241 0.0 2.0 0.00 0.00 0.00 76 1012.4
20260504185012 60 239 0.0 2.0 0.00 0.00 0.00 75 1012.4
20260504184510 60 238 0.0 1.0 0.00 0.00 0.00 75 1012.2
20260504184012 60 239 0.0 0.0 0.00 0.00 0.00 75 1012.3
20260504183510 61 239 0.0 0.0 0.00 0.00 0.00 74 1012.3
20260504183009 61 238 0.0 0.0 0.00 0.00 0.00 73 1012.3
20260504182508 62 238 0.0 0.0 0.00 0.00 0.00 73 1012.3
20260504182010 62 238 0.0 0.0 0.00 0.00 0.00 72 1012.1
20260504181510 63 238 0.0 0.0 0.00 0.00 0.00 71 1012.2
20260504181007 63 238 0.0 0.0 0.00 0.00 0.00 70 1012.1
20260504180509 63 238 0.0 0.0 0.00 0.00 0.00 70 1012.1
20260504180007 64 238 0.0 0.0 0.00 0.00 0.00 69 1012.2
20260504175506 64 238 0.0 0.0 0.00 0.00 0.00 69 1012.2
20260504175006 64 233 0.0 0.0 0.00 0.00 0.00 68 1012.1
20260504174506 65 233 0.0 0.0 0.00 0.00 0.00 68 1012.2
20260504174007 65 233 0.0 1.0 0.00 0.00 0.00 67 1012.0
20260504173506 65 232 0.0 2.0 0.00 0.00 0.00 66 1012.0
20260504173006 66 246 0.0 2.0 0.00 0.00 0.00 66 1012.1
20260504172504 66 265 0.0 2.0 0.00 0.00 0.00 65 1012.1
20260504172004 66 266 0.0 4.0 0.00 0.00 0.00 64 1012.1
20260504171516 67 22 0.0 4.0 0.00 0.00 0.00 64 1012.1
20260504171005 67 229 0.0 2.0 0.00 0.00 0.00 63 1012.0
20260504170503 67 292 0.0 1.0 0.00 0.00 0.00 63 1012.1
20260504151057 70 144 2.0 7.0 0.00 0.00 0.00 52 1012.2
20260504150600 70 186 2.0 7.0 0.00 0.00 0.00 51 1012.0
20260504141053 72 191 3.0 8.0 0.00 0.00 0.00 50 1012.5
20260504140552 71 239 2.0 7.0 0.00 0.00 0.00 54 1012.5
20260504130545 69 265 1.0 6.0 0.00 0.00 0.00 55 1013.0
20260504110539 69 202 1.0 7.0 0.00 0.00 0.00 57 1013.7
20260504100532 67 246 2.0 6.0 0.00 0.00 0.00 63 1014.3
20260504081525 64 228 1.0 4.0 0.00 0.00 0.00 58 1014.3
20260504081017 63 211 2.0 7.0 0.00 0.00 0.00 56 1014.4
20260504080520 63 209 1.0 7.0 0.00 0.00 0.00 58 1014.3
20260504050548 56 127 0.0 4.0 0.00 0.00 0.00 62 1013.7
20260504045546 56 97 1.0 5.0 0.00 0.00 0.00 60 1013.5
20260504045044 56 53 1.0 6.0 0.00 0.00 0.00 60 1013.5
20260504044545 56 80 1.0 6.0 0.00 0.00 0.00 60 1013.3
20260504044045 56 80 1.0 5.0 0.00 0.00 0.00 60 1013.3
20260504043544 56 84 2.0 5.0 0.00 0.00 0.00 60 1013.4
20260504043044 56 76 1.0 3.0 0.00 0.00 0.00 60 1013.3
20260504042547 56 77 1.0 5.0 0.00 0.00 0.00 61 1013.2
20260504042048 56 55 1.0 5.0 0.00 0.00 0.00 61 1013.1
20260504041545 56 86 2.0 4.0 0.00 0.00 0.00 61 1013.1
20260504041041 56 81 2.0 6.0 0.00 0.00 0.00 61 1013.1
20260504040539 56 76 2.0 7.0 0.00 0.00 0.00 61 1013.1
20260504040038 56 76 2.0 6.0 0.00 0.00 0.00 61 1013.2
20260504035540 56 88 2.0 5.0 0.00 0.00 0.00 62 1013.3
20260504035036 56 82 2.0 5.0 0.00 0.00 0.00 62 1013.2
20260504034540 56 81 2.0 6.0 0.00 0.00 0.00 61 1013.3
20260504034034 56 90 2.0 6.0 0.00 0.00 0.00 61 1013.3
20260504033535 56 74 1.0 6.0 0.00 0.00 0.00 61 1013.5
20260504033034 56 99 1.0 6.0 0.00 0.00 0.00 61 1013.6